AirNav   Phillips 66 Aviation Fuel
 
 1405 users online  

H97 Pawnee Municipal Airport
Pawnee, Oklahoma, USA

GOING TO PAWNEE?


FAA INFORMATION EFFECTIVE 20 JUNE 2019

Location

FAA Identifier: H97
Lat/Long: 36-23-00.1880N / 096-48-37.1250W
36-23.003133N / 096-48.618750W
36.3833856 / -96.8103125
(estimated)
Elevation: 875 ft. / 267 m (estimated)
Variation: 06E (1985)
From city: 2 miles N of PAWNEE, OK
Time zone: UTC -5 (UTC -6 during Standard Time)
Zip code: 74058

Airport Operations

Airport use: Open to the public
Activation date: 11/1965
Control tower: no
ARTCC: KANSAS CITY CENTER
FSS: MC ALESTER FLIGHT SERVICE STATION
NOTAMs facility: MLC (NOTAM-D service available)
Attendance: UNATNDD
FOR ARPT ATTENDANT CALL 918-762-3166.
Wind indicator: yes
Segmented circle: yes

Airport Communications

CTAF: 122.9
WX ASOS at SWO (19 nm SW): 135.725 (405-743-8150)

Nearby radio navigation aids

VOR radial/distance  VOR name  Freq  Var
SWOr047/16.2STILLWATER VOR/DME108.4007E
PERr136/27.5PIONEER VORTAC113.2006E

 
NDB name  Hdg/Dist  Freq  Var  ID
CUSHING352/29.724205ECUH -.-. ..- ....
WILLIAM POGUE286/34.236206EOWP --- .-- .--.

Airport Services

Parking: tiedowns
Airframe service: NONE
Powerplant service: NONE
Bottled oxygen: NONE
Bulk oxygen: NONE

Runway Information

Runway 18/36

Dimensions: 2130 x 100 ft. / 649 x 30 m
SOUTH 300 FT MUDDY AND SOFT WHEN WET.
Surface: turf, in good condition
RUNWAY 18  RUNWAY 36
Traffic pattern: leftleft
Obstructions: 40 ft. trees, 250 ft. from runway, 75 ft. right of centerline, 6:1 slope to clear30 ft. trees, 75 ft. left of centerline

Airport Ownership and Management from official FAA records

Ownership: Publicly-owned
Owner: CITY OF PAWNEE
CITY HALL, 510 ILLINOIS ST
PAWNEE, OK 74058
Phone 918-762-2110
Manager: BRAD SEWELL
CITY HALL, 510 ILLINOIS ST
PAWNEE, OK 74058
Phone 918-762-2110
MAYOR.

Airport Operational Statistics

Aircraft operations: 100/year *
100% transient general aviation
* for 12-month period ending 20 September 2017

Additional Remarks

FOR CD CTC KANSAS CITY ARTCC AT 913-254-8508.

Instrument Procedures

There are no published instrument procedures at H97.

Some nearby airports with instrument procedures:

KSWO - Stillwater Regional Airport (19 nm SW)
F22 - Perry Municipal Airport (23 nm W)
KPNC - Ponca City Regional Airport (25 nm NW)
KCUH - Cushing Municipal Airport (26 nm S)
KBKN - Blackwell-Tonkawa Municipal Airport (34 nm NW)
 
Loc | Ops | Rwys | IFR | FBO | Links
Com | Nav | Svcs | Stats | Notes
Area around H97 (Pawnee Municipal Airport)
 
Road maps at: MapQuest Bing Google
 
Aerial photo
WARNING: Photo may not be current or correct
Aerial photo of H97 (Pawnee Municipal Airport)
Do you have a better or more recent aerial photo of Pawnee Municipal Airport that you would like to share? If so, please send us your photo.

 
Sectional chart

 
Airport distance calculator
Flying to Pawnee Municipal Airport? Find the distance to fly.

From to H97

Sunrise and sunset
Times for 20-Jun-2019
 Local
(UTC-5)
 Zulu
(UTC)
Morning civil twilight05:4010:40
Sunrise06:1011:10
Sunset20:4701:47
Evening civil twilight21:1802:18

Current date and time
Zulu (UTC)  20-Jun-2019 20:43:04
Local (UTC-5)  20-Jun-2019 15:43:04
 
METAR
KSWO 
19nm SW 
201953Z 13013G19KT 10SM CLR 34/19 A2973 RMK AO2 SLP054 T03440189
KPNC 
25nm NW 
201953Z AUTO 10SM CLR 33/21 A2972 RMK AO2 SLP049 T03330211
KCUH 
26nm S 
202015Z AUTO 13009G15KT 10SM CLR 32/20 A2973 RMK AO2 T03220204
KBKN 
34nm NW 
202015Z AUTO 15013G19KT 10SM CLR 34/21 A2973 RMK AO2 LTG DSNT N
KOWP 
34nm E 
202015Z AUTO 14007KT 10SM CLR 34/21 A2975 RMK AO2 T03360208
TAF
KPNC 
25nm NW 
201723Z 2018/2118 16010G17KT P6SM SCT040 FM210000 14009KT P6SM SKC
NOTAMs
Click for the latest NOTAMs
NOTAMs are issued by the DoD/FAA and will open in a separate window not controlled by AirNav.

 

 
 

Would you like to see your business listed on this page?

 If your business provides an interesting product or service to pilots, flight crews, aircraft, or users of the Pawnee Municipal Airport, you should consider listing it here.  To start the listing process, click on the button below
 
Add a business
 

Other Pages about Pawnee Municipal Airport

Update a link
 
Copyright © AirNav, LLC. All rights reserved. Privacy Policy  Contact